Zurück zum Katalog

TITAN 3C TRANSTAGE DEB

LostHEO
NORAD 28816·DEBRIS·🇺🇸 United States

Gestartet Dec 21, 1965 von Cape Canaveral Space Force Station

Loading…

Nächste Überflüge (nächste 24 Stunden)

TLE

VeraltetSource: Space-Track

Epoche: Mar 1, 2022, 05:56 UTC

1 28816U 65108CD  22060.24740455 -.00000166  00000-0  00000+0 0  9999
2 28816  26.0857 121.3308 6515685 223.2537  22.2759  2.63278248163709

Verfolge TITAN 3C TRANSTAGE DEB in Echtzeit mit AllMySat

Download on the App Store